Regional Weather Roundup
Issued by NWS

Home | Current Version | Previous Version | Graphics & Text | Print | Product List | Glossary Off
Versions: 1 2 3 4 5 6 7 8 9 10 11 12 13 14 15 16 17 18 19 20 21 22 23 24 25 26 27 28 29 30 31 32 33 34 35 36 37 38 39 40 41 42 43 44 45 46 47 48 49 50

000
ASUS43 KTOP 010008
RWRKS

WEATHER ROUNDUP FOR KANSAS
NATIONAL WEATHER SERVICE GOODLAND KS
700 PM CDT TUE SEP 30 2014

NOTE:  "FAIR" INDICATES FEW OR NO CLOUDS BELOW 12,000 FEET WITH NO
SIGNIFICANT WEATHER AND/OR OBSTRUCTIONS TO VISIBILITY.

KSZ001>006-013>018-027>032-041>047-010100-
NORTHWEST KANSAS

CITY           SKY/WX    TMP DP  RH WIND       PRES   REMARKS
GOODLAND       CLEAR     70  40  33 S3        29.77S
6HR MIN TEMP:  69; 6HR MAX TEMP:  74;

HAYS           CLEAR     75  63  64 N6        29.67S
HILL CITY      CLEAR     77  55  46 SE3       29.69F
6HR MIN TEMP:  74; 6HR MAX TEMP:  80;

RUSSELL        MOCLDY    73  63  70 SE10      29.66S
6HR MIN TEMP:  70; 6HR MAX TEMP:  80; 6HR PCP:  0.06;

$$

KSZ061>065-074>080-084>089-010100-
SOUTHWEST KANSAS

CITY           SKY/WX    TMP DP  RH WIND       PRES   REMARKS
DODGE CITY     CLEAR     79  43  27 W9        29.69S
6HR MIN TEMP:  77; 6HR MAX TEMP:  85;

GARDEN CITY    CLEAR     75  46  35 SW6       29.73S
6HR MIN TEMP:  71; 6HR MAX TEMP:  79;

GREAT BEND     MOCLDY    72  63  73 SW13      29.67R
LIBERAL        CLEAR     79  41  25 NW8       29.73F
PRATT          MOCLDY    81  54  39 S16G25    29.67F
$$

KSZ066>073-081>083-090>101-010100-
SOUTHEAST KANSAS

CITY           SKY/WX    TMP DP  RH WIND       PRES   REMARKS
CHANUTE        CLEAR     77  62  59 SE14      29.78F
6HR MIN TEMP:  77; 6HR MAX TEMP:  83;

COFFEYVILLE    CLEAR     78  63  59 SE10      29.78S
6HR MIN TEMP:  78; 6HR MAX TEMP:  85;

HUTCHINSON     MOCLDY    82  57  42 SE17      29.68F
6HR MIN TEMP:  80; 6HR MAX TEMP:  88;

MEDICINE LODGE   N/A     82  58  43 S9G17     29.66F
NEWTON         PTCLDY    79  57  47 S16G22    29.73F
PARSONS        CLEAR     78  63  59 SE7       29.79F
6HR MIN TEMP:  78; 6HR MAX TEMP:  85;

WICHITA INTL   MOCLDY    83  58  42 S18G26    29.70S
6HR MIN TEMP:  83; 6HR MAX TEMP:  88;

WICHITA JABRA  CLEAR     80  59  48 S20G26    29.71F
6HR MIN TEMP:  80; 6HR MAX TEMP:  86;

WICHITA MCCONL LGT RAIN  81  61  50 SE16      29.72F
WINFIELD       CLEAR     80  61  52 SE10      29.74S
6HR MIN TEMP:  80; 6HR MAX TEMP:  88;

$$

KSZ007>012-019>026-033>040-048>060-102>105-010100-
NORTHEAST KANSAS

CITY           SKY/WX    TMP DP  RH WIND       PRES   REMARKS
CONCORDIA      MOCLDY    67  67 100 NW9       29.72R
6HR MIN TEMP:  65; 6HR MAX TEMP:  71; 6HR PCP:  0.13;

EMPORIA        CLEAR     77  61  57 SE14      29.74F
6HR MIN TEMP:  77; 6HR MAX TEMP:  83;

LAWRENCE       PTCLDY    77  57  50 SE12      29.77S
6HR MIN TEMP:  77; 6HR MAX TEMP:  85;

MANHATTAN      MOCLDY    80  62  54 S13       29.70S
6HR MIN TEMP:  78; 6HR MAX TEMP:  85;

MARYSVILLE     LGT RAIN  68  66  94 N3        29.74S
OLATHE IND     PTCLDY    76  57  51 SE9       29.79F
6HR MIN TEMP:  76; 6HR MAX TEMP:  83;

OLATHE EXE     CLEAR     76  56  49 S9        29.79S
6HR MIN TEMP:  76; 6HR MAX TEMP:  83;

SALINA         CLOUDY    74  66  76 CALM      29.67S
6HR MIN TEMP:  70; 6HR MAX TEMP:  82; 6HR PCP:  0.02;

TOPEKA BILLARD PTCLDY    80  58  46 SE12      29.75S
6HR MIN TEMP:  78; 6HR MAX TEMP:  87;

TOPEKA FORBES  PTCLDY    79  58  48 S14G22    29.75S
6HR MIN TEMP:  79; 6HR MAX TEMP:  86; 6HR PCP: TRACE;

$$


USA.gov is the U.S. government's official web portal to all federal, state and local government web resources and services.